Location: Blazny
(46.0612°N, 84.4033°W)
Time: 09:09:16
(UTC-04:00)

ARIANE 6 FM1 Upper Stage - Pass Details

Date: 22 September 2024
Orbit: 564 x 594 km, 62.0° (Epoch: 03 October)

Event Time Altitude Azimuth Distance (km) Brightness Sun altitude
Rises 20:47:21 0° 211° (SSW) 2,770 6.4 -13.4°
Reaches altitude 10° 20:49:35 10° 208° (SSW) 1,881 5.5 -13.8°
Maximum altitude 20:53:47 65° 127° (SE) 642 2.7 -14.5°
Drops below altitude 10° 20:58:04 10° 46° (NE) 1,913 5.1 -15.2°
Enters shadow 20:58:51 - 45° (NE) 2,222 5.4 -15.4°
